Terug naar catalogus

COSMOS 1867 COOLANT

ActiefLEO
NORAD 39669·DEBRIS·🇷🇺 Russia

Gelanceerd Jul 10, 1987 vanaf Baikonur Cosmodrome

Loading…

Volgende Passages (komende 24 uur)

TLE

VersSource: Space-Track

Epoch: Sep 14, 2026, 14:46 UTC

1 39669U 87060AG  26257.61595785  .00000126  00000-0  80874-4 0  9992
2 39669  65.0120 119.0427 0018979 281.1897  78.7055 14.34030745649522

Volg COSMOS 1867 COOLANT in realtime met AllMySat

Download on the App Store